This is the latest recevied weather packets stored in our database for station/object WX6HNX-12. If no packets are shown the sender has not sent any weather packets the latest 10 day(s).
| Time | Temp. | Humidity | Pressure | Rain* | Wind** | Luminosity | Snow |
|---|---|---|---|---|---|---|---|
| 1777943417 | 17.78° C | 54% | 1012.2 hPa | 0 mm | - | - | - |
| 1777943116 | 17.78° C | 54% | 1012.3 hPa | 0 mm | - | - | - |
| 1777942817 | 17.78° C | 54% | 1012.5 hPa | 0 mm | - | - | - |
| 1777942516 | 17.78° C | 54% | 1012.6 hPa | 0 mm | - | - | - |
| 1777942216 | 17.78° C | 53% | 1012.6 hPa | 0 mm | - | - | - |
| 1777941916 | 17.78° C | 52% | 1012.7 hPa | 0 mm | - | - | - |
| 1777941616 | 18.33° C | 52% | 1012.6 hPa | 0 mm | - | - | - |
| 1777941316 | 18.33° C | 52% | 1012.5 hPa | 0 mm | - | - | - |
| 1777940718 | 18.33° C | 51% | 1012.5 hPa | 0 mm | - | - | - |
| 1777940415 | 17.78° C | 52% | 1012.4 hPa | 0 mm | - | - | - |
| 1777940117 | 17.78° C | 52% | 1012.4 hPa | 0 mm | - | - | - |
| 1777939816 | 17.78° C | 54% | 1012.4 hPa | 0 mm | - | - | - |
| 1777939516 | 17.78° C | 54% | 1012.3 hPa | 0 mm | - | - | - |
| 1777939216 | 18.33° C | 54% | 1012.3 hPa | 0 mm | - | - | - |
| 1777938915 | 18.33° C | 55% | 1012.4 hPa | 0 mm | - | - | - |
| 1777938617 | 18.89° C | 55% | 1012.4 hPa | 0 mm | - | - | - |
| 1777938317 | 18.33° C | 56% | 1012.4 hPa | 0 mm | - | - | - |
| 1777937829 | 18.89° C | 54% | 1012.4 hPa | 0 mm | - | - | - |
| 1777937523 | 18.33° C | 55% | 1012.4 hPa | 0 mm | - | - | - |
| 1777937224 | 18.33° C | 56% | 1012.4 hPa | 0 mm | - | - | - |
| 1777936924 | 18.33° C | 57% | 1012.5 hPa | 0 mm | - | - | - |
| 1777936623 | 18.33° C | 58% | 1012.5 hPa | 0 mm | - | - | - |
| 1777936323 | 17.78° C | 57% | 1012.6 hPa | 0 mm | - | - | - |
| 1777935746 | 18.33° C | 59% | 1012.8 hPa | 0 mm | - | - | - |
| 1777935446 | 18.33° C | 55% | 1012.8 hPa | 0 mm | - | - | - |
* Rain latest hour (hover to see other rain measurements)
** Current wind speed in m/s (hover to see current wind gust speed)